Location: Brabourne
(51.1333°N, 1.0000°E)
Time: 05:48:34
(UTC+00:00)

NOSS 3-1 (A) - Pass Details

Date: 25 October 2021
Orbit: 721 x 1491 km, 63.4° (Epoch: 22 November)

Event Time Altitude Azimuth Distance (km) Brightness Sun altitude
Rises 20:44:57 0° 263° (W) 3,355 6.9 -37.6°
Reaches altitude 10° 20:47:25 10° 273° (W) 2,509 6.2 -37.9°
Enters shadow 20:52:00 35° 323° (NW) 1,499 4.8 -38.5°
